Weather History for KIPT - September, 2014

Change the Weather History Date:

Monday, September 22, 2014

  Actual Average Record
Temperature  
Mean Temperature 55 °F 61 °F  
Max Temperature 64 °F 71 °F 97 °F (1931)
Min Temperature 45 °F 51 °F 31 °F (1904)
Degree Days  
Heating Degree Days 10 5  
Month to date heating degree days 61 60  
Since 1 July heating degree days 66 74  
Cooling Degree Days 0 1  
Month to date cooling degree days 84 56  
Year to date cooling degree days 701 690  
Growing Degree Days 6 (Base 50)    
Moisture  
Dew Point 46 °F    
Average Humidity 64    
Maximum Humidity 84    
Minimum Humidity 43    
Precipitation  
Precipitation 0.00 in 0.13 in 3.62 in (1913)
Month to date precipitation 1.08 3.06  
Year to date precipitation 29.89 30.09  
Sea Level Pressure  
Sea Level Pressure 29.98 in    
Wind  
Wind Speed 10 mph (WNW)    
Max Wind Speed 20 mph    
Max Gust Speed 25 mph    
Visibility 10 miles    
Events Rain    
T = Trace of Precipitation, MM = Missing Value Source: NWS Daily Summary

Daily Weather History Graph

Daily Weather History Graph

Search for Another Location

Airport or City:

Trip Planner

Search our weather history database for the weather conditions in past years. The results will help you decide how hot, cold, wet, or windy it might be!

Date:

Astronomy

Sep. 22, 2014 Rise Set
Actual Time 6:55 AM EDT 7:04 PM EDT
Civil Twilight 6:27 AM EDT 7:32 PM EDT
Nautical Twilight 5:55 AM EDT 8:04 PM EDT
Astronomical Twilight 5:22 AM EDT 8:37 PM EDT
Moon 5:21 AM EDT (9/22) 6:11 PM EDT (9/22)
Length of Visible Light 13h 04m
Length of Day
12h 09m
Waning Crescent, 2% of the Moon is Illuminated
Sep 22
Waning Crescent
Sep 24
New
Oct 1
First Quarter
Oct 8
Full
Oct 15
Last Quarter

Hourly Weather History & Observations

Time (EDT) Temp. Dew Point Humidity Pressure Visibility Wind Dir Wind Speed Gust Speed Precip Events Conditions
12:54 AM 60.1 °F 55.9 °F 86% 29.72 in 10.0 mi West 4.6 mph - 0.00 in Rain Rain
1:54 AM 60.8 °F 53.6 °F 77% 29.74 in 10.0 mi West 9.2 mph - N/A Rain Rain
2:54 AM 61.0 °F 52.0 °F 72% 29.74 in 10.0 mi WNW 5.8 mph - 0.00 in Rain Rain
3:54 AM 60.8 °F 51.8 °F 72% 29.76 in 10.0 mi WSW 9.2 mph - N/A Rain Rain
4:54 AM 60.1 °F 50.0 °F 69% 29.78 in 10.0 mi West 13.8 mph - 0.00 in Rain Rain
5:54 AM 57.9 °F 50.0 °F 75% 29.83 in 10.0 mi West 11.5 mph - 0.00 in Rain Rain
6:26 AM 57.2 °F 50.0 °F 77% 29.85 in 10.0 mi WNW 12.7 mph - N/A Rain Rain
6:54 AM 55.9 °F 48.9 °F 77% 29.87 in 10.0 mi West 9.2 mph - 0.01 in   Overcast
7:54 AM 55.9 °F 48.0 °F 75% 29.91 in 10.0 mi West 10.4 mph - N/A   Overcast
8:54 AM 57.9 °F 46.9 °F 67% 29.95 in 10.0 mi WNW 12.7 mph - N/A   Overcast
9:18 AM 57.0 °F 46.9 °F 69% 29.96 in 10.0 mi NW 11.5 mph 19.6 mph N/A   Overcast
9:44 AM 57.0 °F 46.9 °F 69% 29.97 in 10.0 mi WNW 10.4 mph 20.7 mph N/A   Overcast
9:54 AM 57.9 °F 46.9 °F 67% 29.98 in 10.0 mi WNW 10.4 mph 18.4 mph N/A   Overcast
10:54 AM 57.9 °F 45.0 °F 62% 30.00 in 10.0 mi NW 12.7 mph 20.7 mph N/A   Overcast
11:03 AM 57.9 °F 45.0 °F 62% 30.01 in 10.0 mi WNW 17.3 mph - N/A   Overcast
11:54 AM 60.1 °F 44.1 °F 55% 30.01 in 10.0 mi NNW 11.5 mph - N/A   Overcast
12:54 PM 60.1 °F 43.0 °F 53% 30.04 in 10.0 mi NNW 10.4 mph 20.7 mph N/A   Overcast
1:54 PM 61.0 °F 42.1 °F 50% 30.04 in 10.0 mi WNW 10.4 mph 18.4 mph N/A   Overcast
2:54 PM 62.1 °F 43.0 °F 50% 30.03 in 10.0 mi West 18.4 mph - N/A   Overcast
3:54 PM 63.0 °F 39.9 °F 43% 30.04 in 10.0 mi NW 13.8 mph - N/A   Clear
4:54 PM 62.1 °F 39.9 °F 44% 30.06 in 10.0 mi WNW 16.1 mph 23.0 mph N/A   Scattered Clouds
5:54 PM 60.1 °F 39.9 °F 47% 30.09 in 10.0 mi NW 11.5 mph - N/A   Scattered Clouds
6:54 PM 57.0 °F 39.9 °F 53% 30.11 in 10.0 mi WNW 10.4 mph - N/A   Mostly Cloudy
7:54 PM 55.0 °F 39.9 °F 57% 30.14 in 10.0 mi WNW 6.9 mph - N/A   Mostly Cloudy
8:54 PM 52.0 °F 42.1 °F 69% 30.18 in 10.0 mi WNW 5.8 mph - N/A   Mostly Cloudy
9:54 PM 53.1 °F 41.0 °F 64% 30.20 in 10.0 mi WNW 9.2 mph - N/A   Mostly Cloudy
10:54 PM 48.9 °F 42.1 °F 77% 30.22 in 10.0 mi West 4.6 mph - N/A   Clear
11:54 PM 46.9 °F 41.0 °F 80% 30.22 in 10.0 mi NNW 3.5 mph - N/A   Clear